Regional Weather Roundup
Issued by NWS Grand Forks, ND

Home | Current Version | Previous Version | Text Only | Print | Product List | Glossary Off
Versions: 1 2 3 4 5 6 7 8 9 10 11 12 13 14 15 16 17 18 19 20 21 22 23 24 25 26 27 28 29 30 31 32 33 34 35 36 37 38 39 40 41 42 43 44 45 46 47 48 49 50

000
ASUS43 KFGF 291731
RWRFGF
PRAIRIE TO PINES  WEATHER ROUNDUP
NATIONAL WEATHER SERVICE EASTERN NORTH DAKOTA/GRAND FORKS ND
1200 PM CDT MON AUG 29 2016

 **SATELLITE DATA USED TO AUGMENT SKY COVER AT AUTOMATED STATIONS**
 *****  WEATHER ACROSS EASTERN NORTH DAKOTA  *****

CITY           SKY/WX    TMP DP  RH WIND       PRES   REMARKS
GRAND FORKS    MOSUNNY   75  63  66 NW8       30.17R
GRAND FRKS AFB SUNNY     74  62  66 N9        30.19R
GRAND FRKS NWS   N/A     75 N/A N/A N14         N/A
DEVILS LAKE    SUNNY     68  51  54 N8        30.25R
FARGO          CLOUDY    78  70  76 SW9       30.15R
WAHPETON ARPT  MOSUNNY   81  64  57 SW8G17    30.14F
$$

 ***** WEATHER ACROSS CENTRAL AND WESTERN NORTH DAKOTA  *****

CITY           SKY/WX    TMP DP  RH WIND       PRES   REMARKS
BISMARCK       CLOUDY    71  51  49 N9        30.28R
MINOT          SUNNY     68  47  46 N7        30.28R
JAMESTOWN      SUNNY     72  61  68 N8        30.22R
MINOT AFB      SUNNY     65  47  51 N8        30.27S
GARRISON         N/A     68  48  48 VRB7      30.28R
WILLISTON      SUNNY     66  43  43 N9        30.32S
DICKINSON      SUNNY     69  46  43 NE9       30.29F
HETTINGER      SUNNY     71  50  47 E14       30.31R
$$

 *****  OTHER AIRPORT OBSERVATIONS IN OUR AREA  *****

CITY           SKY/WX    TMP DP  RH WIND       PRES   REMARKS
WALHALLA       FAIR      68  64  88 NW10      30.20S
GRAFTON AIRPOR FAIR      72  63  73 NW8G15    30.20R
VALLEY CITY AR FAIR      75  70  83 N13       30.22S
CANDO          FAIR      68  50  52 NW8       30.28R
CAVALIER APRT  FAIR      72  57  60 NW10      30.20R
GWINNER        FAIR      79  72  78 N6        30.17S
SHEYENNE NWR     N/A     80  71  72 W3        29.95S
ROLLA          FAIR      63  48  59 NW14G20   30.27R
 ***** THE ABOVE OBSERVATIONS ARE NON NWS ARE NOT QUALITY
       CONTROLLED AND MAY MIS-REPORT RAIN FOR SNOW...
$$

  *****  WEATHER ACROSS NORTHERN MINNESOTA  *****

CITY           SKY/WX    TMP DP  RH WIND       PRES   REMARKS
FLAG ISLAND    MOSUNNY   70  63  78 CALM      30.11S
WARROAD        CLOUDY    72  66  83 NW13G18   30.14R
ROSEAU         SUNNY     73  68  83 NW9       30.14S
HALLOCK        SUNNY     73  61  64 NW12      30.16S
THF RVR FALLS  CLOUDY    72  66  83 NW9       30.17R
BAUDETTE       PTSUNNY   74  67  78 W8        30.11R
WASKISH          N/A     73  66  78 SW10      30.13S
CROOKSTON      MOSUNNY   72  66  83 NW12      30.17R
STEPHEN NDAWN    N/A     73  63  68 NW12        N/A
GREENBUSH NDAW   N/A     75  66  73 NW9         N/A
$$
  *****  WEATHER ACROSS CENTRAL AND WEST MINNESOTA  *****

CITY           SKY/WX    TMP DP  RH WIND       PRES   REMARKS
FOSSTON        CLOUDY    72  66  83 W13       30.16S
BEMIDJI        MOSUNNY   78  68  72 W14G21    30.14S
PARK RAPIDS    SUNNY     79  68  69 W10       30.16R
ELBOW LAKE     FAIR      79  68  68 S9        30.16S
WADENA         SUNNY     77  64  65 S12G18    30.17R
DETROIT LAKES  MOSUNNY   77  68  73 W12       30.17S
MOORHEAD       MOSUNNY   79  70  73 W8        30.16R
FERGUS FALLS   SUNNY     81  68  65 SW13      30.15F
MORRIS MN      SUNNY     84  70  61 S16       30.14R
STAPLES        SUNNY     79  64  61 S8        30.16R
$$
  *****  WEATHER ELSEWHERE ACROSS MINNESOTA  *****

CITY           SKY/WX    TMP DP  RH WIND       PRES   REMARKS
DULUTH         CLOUDY    72  64  76 W9        30.14F
INTRNTL FALLS  PTSUNNY   76  65  68 W13G23    30.10F
ELY            CLOUDY    73  63  68 SW7       30.13S
CLOQUET        CLOUDY    72  63  73 SW3       30.14S
WHEATON        SUNNY     82  73  74 S10G17    30.15F
BRAINERD       MOSUNNY   75  64  68 S12       30.15R
HIBBING        CLOUDY    68  63  84 SW6       30.13S
ALEXANDRIA     SUNNY     77  67  71 S8        30.18R
SAINT CLOUD    SUNNY     80  71  74 S16G23    30.13R
MINNEAPOLIS    PTSUNNY   79  68  69 S16       30.18F
$$

  *****  WEATHER ACROSS SOUTH DAKOTA  *****

CITY           SKY/WX    TMP DP  RH WIND       PRES   REMARKS
SIOUX FALLS    PTSUNNY   81  70  69 VRB7      30.21R
BROOKINGS      MOSUNNY   77  70  79 E13       30.20R
WATERTOWN      MOSUNNY   82  71  69 S17       30.16F
HURON          SUNNY     85  66  53 CALM      30.14R
SISSETON         N/A     79  70  74 SW10      30.14S
ABERDEEN       MOSUNNY   78  67  68 N10       30.16F
MITCHELL       MOSUNNY   85  71  63 S9        30.15S HX  90
PIERRE         SUNNY     83  62  49 NE10      30.14R
MOBRIDGE       SUNNY     80  60  50 NE16      30.19R
RAPID CITY     SUNNY     73  56  54 N16       30.29R
$$

  *****  SOME WEATHER IN NEARBY STATES *****

CITY           SKY/WX    TMP DP  RH WIND       PRES   REMARKS
GLASGOW MT     SUNNY     65  44  46 SE14G20   30.30F
GREAT FALLS MT SUNNY     68  46  45 VRB3      30.24F
CHEYENNE WY    CLOUDY    77  39  25 E10       30.37R
SCOTTSBLUFF NE SUNNY     78  53  41 NW9       30.27R
OMAHA NE       CLOUDY    79  69  71 SE3       30.20S
DES MOINES IA  CLOUDY    79  73  82 E6        30.22S
DAVENPORT IA   MOSUNNY   83  74  74 MISG      30.24S
CHICAGO IL     PTSUNNY   83  72  69 SE7       30.24F
EAU CLAIRE WI  CLOUDY    77  69  76 S10       30.21F
LA CROSSE WI   MOSUNNY   84  71  65 CALM      30.23F
$$

  *****  SOME NATIONAL WEATHER *****

CITY           SKY/WX    TMP DP  RH WIND       PRES   REMARKS
LA GUARDIA NY  MOSUNNY   89  65  44 NW12      30.09S HX  91
RALEIGH NC     CLOUDY    83  61  47 NE8       30.15F
ATLANTA GA     PTSUNNY   85  70  60 NE14      30.15F
NEW ORLEANS LA PTSUNNY   92  76  59 NE13      30.01R HX 104
OKLAHOMA CITY  PTSUNNY   83  68  60 VRB3      30.16F
ALBUQUERQUE NM MOSUNNY   74  44  34 SW3       30.30S
SALT LAKE CITY MOSUNNY   82  35  18 E5        30.23S
LOS ANGELES CA SUNNY     75  63  66 W7        29.97F
BOISE ID       MOSUNNY   76  46  34 NE7       30.11S SMOKE
SEATTLE WA     MOSUNNY   61  54  77 W5        30.07F
$$

*** WEATHER ACROSS MANITOBA...SASKATCHEWAN AND ONTARIO ***
                ***ONTARIO***

CITY           SKY/WX    TMP DP  RH WIND       PRES   REMARKS
GERALDTON      LGT RAIN  61  59  94 S7        30.16F
THUNDER BAY    PTSUNNY   68  64  88 CALM      30.12F
SIOUX LOOKOUT  LGT RAIN  68  63  83 NW6       30.09S
TORONTO        MOSUNNY   79  57  47 NE3       30.25S
BIG TROUT LK   PTSUNNY   68  61  77 S3        29.93F
PICKLE LAKE    PTSUNNY   70  61  73 S9        30.05S
DRYDEN         CLOUDY    70  63  78 W13G20    30.09S
KENORA         PTSUNNY   68  64  88 NW7       30.11S
$$
                *** MANITOBA***

CITY           SKY/WX    TMP DP  RH WIND       PRES   REMARKS
BRANDON        MOSUNNY   63  50  63 W13G24    30.24S
DAUPHIN        SUNNY     63  46  55 W17G23    30.20F
ISLAND LAKE    CLOUDY    59  52  77 W13G21    30.00R
PILOT MOUND      N/A     63  52  67 NW9         N/A
THE PAS        MOSUNNY   59  45  58 W17G28    30.09R
THOMPSON       CLOUDY    57  48  72 W15G23    29.91S
WINNIPEG       MOSUNNY   68  54  60 NW14G21   30.17R
LYNN LAKE      CLOUDY    54  50  87 MISG      29.90R FOG
CHURCHILL      DRIZZLE   54  52  94 E12       29.83S FOG
GILLAM         CLOUDY    61  52  72 W14G22    29.87R
$$
                ***SASKATCHEWAN***

CITY           SKY/WX    TMP DP  RH WIND       PRES   REMARKS
ESTEVAN        MOSUNNY   64  45  48 N7        30.31S
KINDERSLEY     MOSUNNY   59  41  51 SE6       30.28F
LLOYDMINSTER   PTSUNNY   55  37  50 SW2       30.28S
PRINCE ALBERT  MOSUNNY   57  41  54 W17       30.25S
REGINA         MOSUNNY   57  41  54 N3        30.32S
YORKTON        SUNNY     61  43  51 W13G20    30.27S
N. BATTLEFORD  SUNNY     55  41  58 SW6       30.31S
LA RONGE       MOSUNNY   57  41  54 W18G29    30.15R
SASKATOON      MOSUNNY   59  39  47 NW7       30.31R
SWIFT CURRENT  MOSUNNY   59  43  55 SE6       30.30S
$$
NOTE: THESE ARE AUTOMATED STATIONS WITH LIMITED QUALITY CONTROL
      "FAIR" INDICATES FEW OR NO CLOUDS BELOW 12,000 FEET WITH NO
      SIGNIFICANT WEATHER AND/OR OBSTRUCTIONS TO VISIBILITY.
      SKY/WX - SKY CONDITION AND SIGNIFICANT WEATHER.
      TMP - AIR TEMPERATURE.    DP   - DEWPOINT TEMPERATURE.
      RH  - RELATIVE HUMIDITY.  PRES - PRESSURE.
      HX  - HEAT INDEX.         WCI  - WIND CHILL INDEX.
$




USA.gov is the U.S. government's official web portal to all federal, state and local government web resources and services.